When you browse on this site, cookies collect data to enhance your experience and personalize the content and advertising you see.
Visit our Privacy Policy to learn more. By continuing to use the site, you agree to this use of cookies and data.
  • In United Kingdom
  • List of Countries
  • For 7 days
  • Water Temperature
  • Weather Map
  • Weather Widgets
  • user-avatar
    Login

    Hourly Weather Szentendre

    Today, 2 April, Thursday

    Time Temperature Precipitation Wind Pressure Humidity
    00:00 +3°C° 0 mm 1 mps 750 mmHg 46%
    01:00 +3°C° 0 mm 1 mps 750 mmHg 47%
    02:00 +3°C° 0 mm 1 mps 750 mmHg 47%
    03:00 +2°C° 0 mm 1 mps 750 mmHg 47%
    04:00 +2°C° 0 mm 1 mps 749 mmHg 48%
    05:00 +3°C° 0 mm 1 mps 749 mmHg 46%
    06:00 +4°C° 0 mm 1 mps 749 mmHg 45%
    07:00 +4°C° 0 mm 1 mps 749 mmHg 43%
    08:00 +6°C° 0 mm 1 mps 749 mmHg 39%
    09:00 +6°C° 0 mm 2 mps 749 mmHg 35%
    10:00 +8°C° 0 mm 2 mps 749 mmHg 31%
    11:00 +8°C° 0 mm 3 mps 749 mmHg 30%
    12:00 +9°C° 0 mm 3 mps 748 mmHg 30%
    13:00 +10°C° 0 mm 3 mps 748 mmHg 29%
    14:00 +10°C° 0 mm 3 mps 747 mmHg 31%
    15:00 +10°C° 0 mm 3 mps 747 mmHg 33%
    16:00 +10°C° 0 mm 3 mps 746 mmHg 34%
    17:00 +8°C° 0 mm 2 mps 746 mmHg 41%
    18:00 +7°C° 0 mm 2 mps 746 mmHg 47%
    19:00 +6°C° 0 mm 2 mps 746 mmHg 53%
    20:00 +5°C° 0 mm 2 mps 746 mmHg 56%
    21:00 +6°C° 0 mm 1 mps 746 mmHg 59%
    22:00 +6°C° 0 mm 1 mps 746 mmHg 62%
    23:00 +5°C° 0 mm 1 mps 746 mmHg 64%

    Tomorrow, 3 April, Friday

    Time Temperature Precipitation Wind Pressure Humidity
    00:00 +5°C° 0 mm 1 mps 746 mmHg 66%
    01:00 +4°C° 0 mm 1 mps 746 mmHg 68%
    02:00 +4°C° 0 mm 1 mps 746 mmHg 70%
    03:00 +4°C° 0 mm 1 mps 745 mmHg 72%
    04:00 +3°C° 0 mm 1 mps 745 mmHg 74%
    05:00 +4°C° 0 mm 1 mps 746 mmHg 72%
    06:00 +5°C° 0 mm 1 mps 746 mmHg 70%
    07:00 +5°C° 0 mm 1 mps 746 mmHg 69%
    08:00 +6°C° 0 mm 2 mps 746 mmHg 63%
    09:00 +8°C° 0 mm 2 mps 746 mmHg 57%
    10:00 +10°C° 0 mm 2 mps 746 mmHg 51%
    11:00 +11°C° 0 mm 3 mps 746 mmHg 48%
    12:00 +12°C° 0 mm 3 mps 746 mmHg 45%
    13:00 +13°C° 0 mm 4 mps 747 mmHg 43%
    14:00 +13°C° 0 mm 4 mps 746 mmHg 44%
    15:00 +13°C° 0 mm 4 mps 746 mmHg 45%
    16:00 +12°C° 0 mm 4 mps 746 mmHg 46%
    17:00 +11°C° 0 mm 4 mps 746 mmHg 51%
    18:00 +10°C° 0 mm 3 mps 747 mmHg 57%
    19:00 +8°C° 0 mm 2 mps 747 mmHg 62%
    20:00 +8°C° 0 mm 2 mps 748 mmHg 63%
    21:00 +7°C° 0 mm 2 mps 748 mmHg 65%
    22:00 +7°C° 0 mm 2 mps 749 mmHg 67%
    23:00 +6°C° 0 mm 2 mps 749 mmHg 68%

    Day after tomorrow, 4 April, Saturday

    Time Temperature Precipitation Wind Pressure Humidity
    00:00 +6°C° 0 mm 2 mps 750 mmHg 70%
    01:00 +6°C° 0 mm 2 mps 750 mmHg 71%
    02:00 +5°C° 0 mm 2 mps 750 mmHg 73%
    03:00 +5°C° 0 mm 2 mps 751 mmHg 74%
    04:00 +5°C° 0 mm 2 mps 751 mmHg 75%
    05:00 +5°C° 0 mm 2 mps 751 mmHg 73%
    06:00 +5°C° 0 mm 2 mps 752 mmHg 71%
    07:00 +6°C° 0 mm 2 mps 753 mmHg 69%
    08:00 +7°C° 0 mm 2 mps 753 mmHg 62%
    09:00 +9°C° 0 mm 2 mps 753 mmHg 55%
    10:00 +12°C° 0 mm 2 mps 754 mmHg 48%
    11:00 +13°C° 0 mm 2 mps 754 mmHg 45%
    12:00 +13°C° 0 mm 2 mps 754 mmHg 42%
    13:00 +14°C° 0 mm 2 mps 754 mmHg 38%
    14:00 +14°C° 0 mm 2 mps 754 mmHg 39%
    15:00 +14°C° 0 mm 2 mps 754 mmHg 40%
    16:00 +14°C° 0 mm 2 mps 754 mmHg 42%
    17:00 +13°C° 0 mm 2 mps 754 mmHg 46%
    18:00 +12°C° 0 mm 1 mps 755 mmHg 51%
    19:00 +10°C° 0 mm 1 mps 755 mmHg 55%
    20:00 +10°C° 0 mm 1 mps 756 mmHg 57%
    21:00 +8°C° 0 mm 2 mps 756 mmHg 58%
    22:00 +7°C° 0 mm 2 mps 757 mmHg 59%
    23:00 +7°C° 0 mm 2 mps 757 mmHg 60%

    5 April, Sunday

    Time Temperature Precipitation Wind Pressure Humidity
    00:00 +6°C° 0 mm 2 mps 757 mmHg 61%
    01:00 +5°C° 0 mm 3 mps 758 mmHg 62%
    02:00 +5°C° 0 mm 3 mps 758 mmHg 64%
    03:00 +4°C° 0 mm 3 mps 758 mmHg 65%
    04:00 +4°C° 0 mm 3 mps 758 mmHg 67%
    05:00 +4°C° 0 mm 3 mps 758 mmHg 65%
    06:00 +5°C° 0 mm 4 mps 759 mmHg 62%
    07:00 +6°C° 0 mm 4 mps 759 mmHg 59%
    08:00 +7°C° 0 mm 4 mps 759 mmHg 54%
    09:00 +10°C° 0 mm 4 mps 759 mmHg 49%
    10:00 +11°C° 0 mm 4 mps 759 mmHg 43%
    11:00 +12°C° 0 mm 4 mps 759 mmHg 42%
    12:00 +13°C° 0 mm 4 mps 759 mmHg 41%
    13:00 +14°C° 0 mm 4 mps 759 mmHg 39%
    14:00 +14°C° 0 mm 4 mps 758 mmHg 41%
    15:00 +14°C° 0 mm 4 mps 758 mmHg 44%
    16:00 +14°C° 0 mm 4 mps 758 mmHg 46%
    17:00 +13°C° 0 mm 3 mps 758 mmHg 52%
    18:00 +11°C° 0 mm 3 mps 758 mmHg 59%
    19:00 +10°C° 0 mm 3 mps 758 mmHg 66%
    20:00 +9°C° 0 mm 3 mps 758 mmHg 66%
    21:00 +9°C° 0 mm 3 mps 759 mmHg 66%
    22:00 +8°C° 0 mm 2 mps 759 mmHg 66%
    23:00 +8°C° 0 mm 3 mps 759 mmHg 67%

    6 April, Monday

    Time Temperature Precipitation Wind Pressure Humidity
    00:00 +7°C° 0 mm 3 mps 759 mmHg 67%
    01:00 +7°C° 0 mm 3 mps 760 mmHg 68%
    02:00 +6°C° 0 mm 2 mps 760 mmHg 69%
    03:00 +6°C° 0 mm 2 mps 760 mmHg 70%
    04:00 +5°C° 0 mm 2 mps 760 mmHg 71%
    05:00 +6°C° 0 mm 2 mps 760 mmHg 67%
    06:00 +6°C° 0 mm 2 mps 761 mmHg 63%
    07:00 +7°C° 0 mm 2 mps 761 mmHg 59%
    08:00 +8°C° 0 mm 3 mps 761 mmHg 53%
    09:00 +10°C° 0 mm 4 mps 762 mmHg 47%
    10:00 +10°C° 0 mm 5 mps 762 mmHg 41%
    11:00 +12°C° 0 mm 4 mps 762 mmHg 40%
    12:00 +13°C° 0 mm 4 mps 762 mmHg 39%
    13:00 +14°C° 0 mm 4 mps 762 mmHg 38%
    14:00 +14°C° 0 mm 4 mps 762 mmHg 38%
    15:00 +14°C° 0 mm 4 mps 761 mmHg 38%
    16:00 +14°C° 0 mm 4 mps 761 mmHg 38%
    17:00 +13°C° 0 mm 4 mps 761 mmHg 43%
    18:00 +11°C° 0 mm 3 mps 761 mmHg 48%
    19:00 +10°C° 0 mm 3 mps 761 mmHg 54%
    20:00 +9°C° 0 mm 3 mps 761 mmHg 56%
    21:00 +9°C° 0 mm 2 mps 761 mmHg 58%
    22:00 +8°C° 0 mm 2 mps 762 mmHg 61%
    23:00 +7°C° 0 mm 2 mps 762 mmHg 62%

    7 April, Tuesday

    Time Temperature Precipitation Wind Pressure Humidity
    00:00 +7°C° 0 mm 2 mps 762 mmHg 63%
    01:00 +7°C° 0 mm 1 mps 762 mmHg 64%
    02:00 +7°C° 0 mm 1 mps 762 mmHg 62%
    03:00 +6°C° 0 mm 1 mps 762 mmHg 60%
    04:00 +6°C° 0 mm 1 mps 763 mmHg 58%
    05:00 +7°C° 0 mm 1 mps 763 mmHg 54%
    06:00 +7°C° 0 mm 1 mps 763 mmHg 51%
    07:00 +7°C° 0 mm 2 mps 763 mmHg 47%
    08:00 +8°C° 0 mm 2 mps 763 mmHg 42%
    09:00 +10°C° 0 mm 2 mps 763 mmHg 38%
    10:00 +12°C° 0 mm 2 mps 763 mmHg 33%
    11:00 +13°C° 0 mm 2 mps 763 mmHg 32%
    12:00 +14°C° 0 mm 2 mps 763 mmHg 31%
    13:00 +16°C° 0 mm 2 mps 763 mmHg 31%
    14:00 +16°C° 0 mm 2 mps 763 mmHg 31%
    15:00 +16°C° 0 mm 1 mps 762 mmHg 31%
    16:00 +16°C° 0 mm 1 mps 762 mmHg 30%
    17:00 +15°C° 0 mm 1 mps 762 mmHg 35%
    18:00 +13°C° 0 mm 1 mps 762 mmHg 40%
    19:00 +10°C° 0 mm 0 mps 761 mmHg 45%
    20:00 +10°C° 0 mm 0 mps 762 mmHg 46%
    21:00 +9°C° 0 mm 0 mps 762 mmHg 48%
    22:00 +9°C° 0 mm 0 mps 762 mmHg 50%
    23:00 +8°C° 0 mm 0 mps 762 mmHg 51%
    Show more